Regional Weather Roundup
Issued by NWS Charleston, SC

Current Version | Previous Version | Text Only | Print | Product List | Glossary Off
Versions: 1 2 3 4 5 6 7 8 9 10 11 12 13 14 15 16 17 18 19 20 21 22 23 24 25 26 27 28 29 30 31 32 33 34 35 36 37 38 39 40 41 42 43 44 45 46 47 48 49 50
437 ASUS42 KCHS 021727 RWRCHS REGIONAL WEATHER ROUNDUP NATIONAL WEATHER SERVICE CHARLESTON SC 1200 PM EST FRI DEC 02 2016 NOTE: "FAIR" INDICATES FEW OR NO CLOUDS BELOW 12,000 FEET WITH NO SIGNIFICANT WEATHER AND/OR OBSTRUCTIONS TO VISIBILITY. NOT ALL STATIONS ARE QUALITY CONTROLLED. USE DATA WITH CAUTION... ESPECIALLY DEWPOINT OBSERVATIONS. SCZ027-030-031-034>040-042>050-021800- ...SOUTHEAST SOUTH CAROLINA... CITY SKY/WX TMP DP RH WIND PRES REMARKS N CHARLESTON SUNNY 60 34 37 N10 30.16F WATERFRONT PRK N/A 56 41 57 NE10 30.16F MOUNT PLEASANT FAIR 57 36 44 CALM 30.16F JOHNS ISLAND FAIR 59 37 44 VRB7 30.16F PINOPOLIS N/A 52 37 58 N9 30.10F MONCKS CORNER FAIR 55 32 41 N6 30.17F SUMMERVILLE FAIR 59 37 44 NE6 30.18F BEAUFORT MCAS SUNNY 58 37 45 N8 30.17F BEAUFORT ARPT FAIR 57 39 51 N8 30.17F HILTON HEAD IS SUNNY 59 41 51 NW10 30.18F WALTERBORO SUNNY 59 34 38 N7 30.18F ALLENDALE FAIR 57 34 41 CALM 30.17F ...SOUTHERN MIDLANDS AND PEE DEE... CITY SKY/WX TMP DP RH WIND PRES REMARKS GEORGETOWN FAIR 57 32 38 N9 30.16F KINGSTREE FAIR 55 32 41 CALM 30.17F ORANGEBURG SUNNY 56 32 40 N7 30.18F BARNWELL NOT AVBL AIKEN FAIR 54 32 43 CALM 30.22F MANNING NOT AVBL COLUMBIA SUNNY 58 33 39 VRB6 30.18F SUMTER SUNNY 56 32 40 VRB3 30.15F FLORENCE SUNNY 56 33 42 VRB7 30.17F MYRTLE BEACH SUNNY 57 32 38 N14 30.17F N MYRTLE BEACH SUNNY 57 33 40 N8 30.13F $$ GAZ063-065-086>088-099>101-113>116-118-119-134>141-150-021800- ...SOUTHEAST GEORGIA... CITY SKY/WX TMP DP RH WIND PRES REMARKS SAVANNAH ARPT MOSUNNY 59 36 42 W8 30.18F HUNTER AAF SUNNY 59 42 52 NW9 30.15F FORT STEWART SUNNY 60 37 42 NW7 30.17F STATESBORO SUNNY 59 39 46 NW6 30.19F SYLVANIA SUNNY N/A N/A N/A NE5 30.19F CLAXTON FAIR 59 38 45 NW5 30.19F ...CSRA...CENTRAL AND FAR SOUTHEAST GEORGIA... CITY SKY/WX TMP DP RH WIND PRES REMARKS THOMSON SUNNY 58 35 42 NW5 30.24F AUGUSTA-BUSH SUNNY 59 33 37 CALM 30.20F AUGUSTA-DANIEL SUNNY 56 31 38 CALM 30.21F SWAINSBORO FAIR 57 32 38 N6 30.21F VIDALIA SUNNY 61 37 41 N6 30.20F EASTMAN FAIR 62 12 14 N6 30.23F HAZLEHURST FAIR 61 35 37 NW7 30.20F ALMA SUNNY 60 33 36 N8 30.20F WAYCROSS SUNNY 64 38 38 N7 30.19F JESUP FAIR 61 41 48 N5 30.19F BAXLEY FAIR 61 37 41 N8 30.19F BRUNSWICK SUNNY 63 41 45 NW9 30.18F SAINT SIMONS SUNNY 60 34 37 NW8 30.17F $$ SCZ027-028-034-036>038-045-046-048>050-GAZ119-141-021800- ...LAKE AND SUPPLEMENTAL COASTAL OBSERVATIONS... STATION/POSITION TIME TEMP WIND PRES WAVE SWELL AIR SEA DIR/SP/G HT/PER HT/PER/DIR (UTC) (F) (DEG/KT/KT) (MB) (FT/S) (FT/S/D) WINYAH BAY 1545 53 30/ 8 1021.0 LAKE MURRAY 1620 54 170/ 4/ 6 1022.4 ACE BASIN NERRS 1645 57 340/ 4 1022.0S FORT PULASKI 1700 55 63 330/ 7/ 10 1021.7 SAPELO ISLAND 1700 60 330/ 8 1022.0 $$ ANZ835-935-AMZ111-154-330-350-352-354-370-450-454-472-021800- ...C-MAN AND BUOY OBSERVATIONS... STATION/POSITION TIME TEMP WIND PRES WAVE SWELL AIR SEA DIR/SP/G HT/PER HT/PER/DIR (UTC) (F) (DEG/KT/KT) (MB) (FT/S) (FT/S/D) BUOY 41004 1650 60 74 360/ 12/ 16 1019.8F 3/ 9 2/120/ 9 BUOY 41008 1650 55 65 320/ 12/ 14 1021.6F 2/10 2/120/10 FOLLY BEACH CMAN 1700 57 360/ 7/ 11 1021.9F CAPERS NEARSHORE 1708 55 63 20/ 12/ 16 1020.8S FRIPP NEARSHORE 1708 54 63 10/ 10/ 14 1021.1F STATION/POSITION TIME TEMP WIND PRES WAVE SWELL AIR SEA DIR/SP/G HT/PER HT/PER/DIR (UTC) (F) (DEG/KT/KT) (MB) (FT/S) (FT/S/D) 5E ST. MARYS GA 1700 67 N/A 3/ 5 FRYING PAN BUOY 1710 56 75 350/ 14/ 17 1019.5 BUOY 41025 1650 56 77 360/ 10/ 16 1018.2F 4/ 7 3/140/ 7 CAPE LOOKOUT NC 1700 54 350/ 6/ 7 1018.8F BUOY 41002 1650 70 74 300/ 12/ 17 1016.9F 5/ 7 3/270/ 7 BUOY 41010 NOT AVBL ST AUGUSTINE FL 1700 58 67 360/ 10/ 12 1022.7F $$

USA.gov is the U.S. government's official web portal to all federal, state and local government web resources and services.